Simultaneous Nadir Overpasses (SNOs) Predictions

Prediction of SNOs between GOES-16 and TERRA Satellite Orbit:

Table of predicted SNOs for the next 14.0 days since TLE Epoch: 5/14/2022
Index Date Time (GOES-16) GOES-16 Lat,Lon TERRA Lat,Lon Distance(km) Time Diff (sec)
1 05/14/2022 15:26:07 0.06, -75.22 0.39, -76.83 182.84 80
2 05/16/2022 15:16:31 0.05, -75.23 -0.25, -73.87 154.68 80
3 05/17/2022 03:37:54 -0.05, -75.21 -0.85, -79.06 437.50 80
4 05/18/2022 15:04:14 0.05, -75.24 -0.84, -70.90 492.17 80
5 05/19/2022 03:25:37 -0.04, -75.22 -0.26, -76.09 100.03 80
6 05/21/2022 03:10:41 -0.04, -75.23 0.41, -73.14 238.12 80
7 05/21/2022 15:31:55 0.03, -75.26 0.69, -78.30 345.92 80
8 05/23/2022 15:19:39 0.03, -75.28 0.01, -75.34 7.09 80
9 05/25/2022 15:10:02 0.03, -75.31 -0.62, -72.38 334.14 80
10 05/26/2022 03:31:25 -0.02, -75.31 -0.47, -77.57 256.90 80
11 05/28/2022 03:16:27 -0.02, -75.35 0.11, -74.60 84.59 80
